DW6885 Weather Reports


Display with metric or nautical units.
time (UTC)temp
F
wind
direction
speed
MPH
gust
MPH
rain 1hr
in
rain 24hr
in
rain mn
in
humidity
%
barometer
mb
20150525132525 62 212 0.0 1.0 0.00 0.00 0.00 79 1023.3
20150525131537 61 212 0.0 1.0 0.00 0.00 0.00 79 1023.3
20150525131410 61 212 0.0 0.0 0.00 0.00 0.00 79 1023.3
20150525130526 61 212 0.0 1.0 0.00 0.00 0.00 78 1023.3
20150525130141 60 212 0.0 0.0 0.00 0.00 0.00 78 1023.3
20150525125535 61 212 0.0 2.0 0.00 0.00 0.00 80 1023.3
20150525124525 60 212 0.0 2.0 0.00 0.00 0.00 80 1023.3
20150525124309 60 212 0.0 1.0 0.00 0.00 0.00 80 1023.2
20150525123209 59 212 0.0 2.0 0.00 0.00 0.00 82 1023.3
20150525122534 59 212 0.0 1.0 0.00 0.00 0.00 85 1023.2
20150525121528 59 212 0.0 1.0 0.00 0.00 0.00 85 1023.1
20150525121308 58 212 0.0 0.0 0.00 0.00 0.00 86 1023.1
20150525120526 58 212 0.0 1.0 0.00 0.00 0.00 85 1023.2
20150525120209 58 212 0.0 0.0 0.00 0.00 0.00 87 1023.2
20150525115522 58 212 0.0 0.0 0.00 0.00 0.00 89 1023.1
20150525114309 56 212 0.0 0.0 0.00 0.00 0.00 89 1023.1
20150525113529 56 212 0.0 0.0 0.00 0.00 0.00 91 1023.0
20150525113209 55 212 0.0 0.0 0.00 0.00 0.00 91 1023.0
20150525112529 55 212 0.0 0.0 0.00 0.00 0.00 91 1022.9
20150525111309 54 212 0.0 0.0 0.00 0.00 0.00 92 1023.0
20150525110525 54 212 0.0 0.0 0.00 0.00 0.00 94 1022.9
20150525110209 53 212 0.0 0.0 0.00 0.00 0.00 94 1022.9
20150525105527 53 212 0.0 0.0 0.00 0.00 0.00 94 1022.9
20150525104523 52 212 0.0 0.0 0.00 0.00 0.00 95 1022.9
20150525104213 52 212 0.0 0.0 0.00 0.00 0.00 95 1022.9
20150525103527 52 212 0.0 0.0 0.00 0.00 0.00 95 1022.8
20150525103119 51 212 0.0 0.0 0.00 0.00 0.00 95 1022.9
20150525102523 51 212 0.0 0.0 0.00 0.00 0.00 95 1022.8
20150525101526 51 212 0.0 0.0 0.00 0.00 0.00 95 1022.8
20150525101211 50 212 0.0 0.0 0.00 0.00 0.00 95 1022.8
20150525100525 50 212 0.0 0.0 0.00 0.00 0.00 95 1022.7
20150525100130 50 212 0.0 0.0 0.00 0.00 0.00 95 1022.7
20150525095523 50 212 0.0 0.0 0.00 0.00 0.00 95 1022.7
20150525094210 50 212 0.0 0.0 0.00 0.00 0.00 94 1022.7
20150525093119 50 212 0.0 0.0 0.00 0.00 0.00 94 1022.6
20150525092523 50 212 0.0 0.0 0.00 0.00 0.00 94 1022.6
20150525091116 50 212 0.0 0.0 0.00 0.00 0.00 93 1022.4
20150525090524 50 212 0.0 0.0 0.00 0.00 0.00 94 1022.4
20150525085528 50 212 0.0 0.0 0.00 0.00 0.00 94 1022.3
20150525085509 50 212 0.0 0.0 0.00 0.00 0.00 94 1022.3
20150525084010 50 212 0.0 0.0 0.00 0.00 0.00 93 1022.2
20150525082613 50 212 0.0 0.0 0.00 0.00 0.00 93 1022.2
20150525080909 50 212 0.0 0.0 0.00 0.00 0.00 92 1022.1
20150525075709 51 212 0.0 0.0 0.00 0.00 0.00 92 1022.1
20150525073910 51 212 0.0 0.0 0.00 0.00 0.00 92 1021.9
20150525072709 51 212 0.0 0.0 0.00 0.00 0.00 91 1022.1
20150525070908 51 212 0.0 0.0 0.00 0.00 0.00 91 1022.0
20150525065709 51 212 0.0 0.0 0.00 0.00 0.00 90 1021.9
20150525063809 52 212 0.0 0.0 0.00 0.00 0.00 89 1022.1
20150525062555 52 212 0.0 0.0 0.00 0.00 0.00 88 1022.2
20150525060709 53 212 0.0 0.0 0.00 0.00 0.00 86 1022.2
20150525055610 53 212 0.0 0.0 0.00 0.00 0.00 84 1022.2
20150525053709 54 212 0.0 0.0 0.00 0.00 0.00 81 1022.2
20150525052608 55 212 0.0 0.0 0.00 0.00 0.00 80 1022.3
20150525050709 56 212 0.0 0.0 0.00 0.00 0.00 79 1022.4
20150525045609 56 212 0.0 0.0 0.00 0.00 0.00 78 1022.4
20150525043609 57 212 0.0 0.0 0.00 0.00 0.00 77 1022.5
20150525042609 57 211 0.0 0.0 0.00 0.00 0.00 76 1022.5
20150525040709 57 211 0.0 0.0 0.00 0.00 0.00 74 1022.5
20150525035037 58 211 0.0 0.0 0.00 0.00 0.00 72 1022.6
20150525034009 58 211 0.0 0.0 0.00 0.00 0.00 70 1022.7
20150525032509 59 211 0.0 2.0 0.00 0.00 0.00 68 1022.7
20150525031524 60 238 0.0 1.0 0.00 0.00 0.00 63 1022.6
20150525031009 59 228 0.0 1.0 0.00 0.00 0.00 66 1022.6
20150525025527 60 239 0.0 0.0 0.00 0.00 0.00 61 1022.5
20150525025517 59 238 0.0 3.0 0.00 0.00 0.00 65 1022.6
20150525024521 60 239 0.0 0.0 0.00 0.00 0.00 60 1022.5
20150525024009 59 239 0.0 0.0 0.00 0.00 0.00 61 1022.6
20150525022556 60 239 0.0 0.0 0.00 0.00 0.00 59 1022.6
20150525021008 60 239 0.0 0.0 0.00 0.00 0.00 59 1022.5
20150525015517 61 239 0.0 1.0 0.00 0.00 0.00 58 1022.4
20150525015045 61 239 0.0 0.0 0.00 0.00 0.00 57 1022.3
20150525013517 62 239 0.0 1.0 0.00 0.00 0.00 56 1022.1
20150525012530 63 223 0.0 1.0 0.00 0.00 0.00 52 1021.6
20150525012008 63 239 0.0 0.0 0.00 0.00 0.00 52 1021.8
20150525011523 63 201 0.0 1.0 0.00 0.00 0.00 51 1021.6
20150525010515 64 196 0.0 1.0 0.00 0.00 0.00 51 1021.5
20150525010509 63 239 0.0 0.0 0.00 0.00 0.00 51 1021.6
20150525005516 65 193 0.0 1.0 0.00 0.00 0.00 49 1021.2
20150525005011 63 192 0.0 1.0 0.00 0.00 0.00 51 1021.5
20150525004516 66 192 0.0 0.0 0.00 0.00 0.00 49 1021.2
20150525003519 66 192 0.0 0.0 0.00 0.00 0.00 48 1021.1
20150525003510 64 192 0.0 0.0 0.00 0.00 0.00 50 1021.3
20150525002009 66 192 0.0 0.0 0.00 0.00 0.00 48 1021.1
20150525000515 69 192 0.0 1.0 0.00 0.00 0.00 42 1020.9
20150525000508 68 192 0.0 0.0 0.00 0.00 0.00 44 1021.1
20150524235515 70 192 0.0 2.0 0.00 0.00 0.00 41 1020.9
20150524235113 70 192 0.0 1.0 0.00 0.00 0.00 40 1020.9
20150524234522 72 216 0.0 3.0 0.00 0.00 0.00 36 1020.8
20150524233525 72 217 0.0 3.0 0.00 0.00 0.00 35 1020.8
20150524233510 71 217 0.0 2.0 0.00 0.00 0.00 37 1020.7
20150524232009 72 147 0.0 3.0 0.00 0.00 0.00 34 1020.6
20150524231515 73 236 0.0 3.0 0.00 0.00 0.00 35 1020.6
20150524230518 73 173 0.0 4.0 0.00 0.00 0.00 33 1020.6
20150524225014 74 259 0.0 6.0 0.00 0.00 0.00 31 1020.7
20150524224523 75 152 2.0 5.0 0.00 0.00 0.00 30 1020.6
20150524223608 74 164 1.0 10.0 0.00 0.00 0.00 29 1020.5
20150524222523 76 200 2.0 7.0 0.00 0.00 0.00 29 1020.5
20150524222008 75 74 1.0 8.0 0.00 0.00 0.00 29 1020.4
20150524221516 76 191 1.0 7.0 0.00 0.00 0.00 29 1020.5
20150524220609 76 294 1.0 8.0 0.00 0.00 0.00 29 1020.5
20150524215013 77 13 2.0 6.0 0.00 0.00 0.00 27 1020.4
20150524214515 78 176 2.0 8.0 0.00 0.00 0.00 27 1020.7
20150524213508 77 268 3.0 10.0 0.00 0.00 0.00 27 1020.6
20150524211910 78 321 2.0 11.0 0.00 0.00 0.00 26 1020.8
20150524210514 78 121 4.0 15.0 0.00 0.00 0.00 25 1020.7
20150524205514 78 37 2.0 7.0 0.00 0.00 0.00 25 1020.6
20150524205047 78 225 2.0 10.0 0.00 0.00 0.00 25 1020.6
20150524204519 79 19 2.0 12.0 0.00 0.00 0.00 24 1020.6
20150524204009 79 101 3.0 9.0 0.00 0.00 0.00 23 1020.5
20150524203515 80 14 3.0 12.0 0.00 0.00 0.00 24 1020.6
20150524201808 79 180 2.0 8.0 0.00 0.00 0.00 25 1020.8
20150524200508 78 140 1.0 7.0 0.00 0.00 0.00 25 1020.9
20150524195515 79 94 3.0 12.0 0.00 0.00 0.00 25 1021.0
20150524195012 79 132 2.0 15.0 0.00 0.00 0.00 25 1020.8
20150524194517 79 96 3.0 17.0 0.00 0.00 0.00 26 1021.1
20150524193509 78 331 2.0 10.0 0.00 0.00 0.00 26 1020.8
20150524192524 78 122 2.0 17.0 0.00 0.00 0.00 26 1021.1
20150524191810 78 105 3.0 10.0 0.00 0.00 0.00 25 1021.1
20150524190514 79 11 4.0 17.0 0.00 0.00 0.00 25 1021.4
20150524190509 78 302 5.0 17.0 0.00 0.00 0.00 25 1021.2
20150524185515 79 326 3.0 12.0 0.00 0.00 0.00 26 1021.4
20150524185019 79 240 3.0 19.0 0.00 0.00 0.00 24 1021.3
20150524184517 79 317 3.0 12.0 0.00 0.00 0.00 26 1021.5
20150524183516 79 346 2.0 12.0 0.00 0.00 0.00 27 1021.5
20150524183509 79 147 2.0 10.0 0.00 0.00 0.00 26 1021.3
20150524181909 78 171 2.0 13.0 0.00 0.00 0.00 27 1021.6
20150524180509 78 211 2.0 10.0 0.00 0.00 0.00 27 1021.7
20150524175037 78 94 2.0 7.0 0.00 0.00 0.00 29 1021.9
20150524173508 77 168 2.0 12.0 0.00 0.00 0.00 28 1021.8
20150524172515 76 174 2.0 10.0 0.00 0.00 0.00 28 1022.4
20150524172010 77 5 3.0 10.0 0.00 0.00 0.00 28 1022.0
20150524170518 76 193 2.0 10.0 0.00 0.00 0.00 28 1022.6
20150524170511 76 209 4.0 11.0 0.00 0.00 0.00 28 1022.4
20150524165521 76 192 2.0 6.0 0.00 0.00 0.00 29 1022.6
20150524165012 76 182 3.0 12.0 0.00 0.00 0.00 29 1022.4
20150524163518 75 234 2.0 6.0 0.00 0.00 0.00 29 1022.7
20150524163514 75 175 3.0 13.0 0.00 0.00 0.00 29 1022.6
20150524162514 75 190 3.0 6.0 0.00 0.00 0.00 29 1022.6
20150524162109 75 355 2.0 10.0 0.00 0.00 0.00 30 1022.8
20150524161527 74 21 2.0 10.0 0.00 0.00 0.00 31 1023.1
20150524160508 74 355 2.0 8.0 0.00 0.00 0.00 30 1022.9
20150524155517 74 358 2.0 10.0 0.00 0.00 0.00 32 1023.2
20150524154710 73 346 1.0 9.0 0.00 0.00 0.00 34 1023.2
20150524153515 73 333 3.0 9.0 0.00 0.00 0.00 31 1023.2
20150524153113 72 63 3.0 12.0 0.00 0.00 0.00 33 1023.3
20150524152115 71 294 1.0 14.0 0.00 0.00 0.00 35 1023.2
20150524151518 71 162 4.0 16.0 0.00 0.00 0.00 33 1023.5
20150524150516 71 261 5.0 12.0 0.00 0.00 0.00 33 1023.6
20150524150059 70 233 2.0 11.0 0.00 0.00 0.00 35 1023.6
20150524145517 70 346 2.0 12.0 0.00 0.00 0.00 34 1023.8
20150524145117 69 198 3.0 11.0 0.00 0.00 0.00 36 1023.7
20150524144516 69 161 3.0 10.0 0.00 0.00 0.00 35 1023.8
20150524143517 69 167 3.0 8.0 0.00 0.00 0.00 35 1023.8
20150524143108 68 192 2.0 6.0 0.00 0.00 0.00 37 1023.9
20150524142517 68 203 3.0 8.0 0.00 0.00 0.00 38 1023.9
20150524141518 67 170 2.0 8.0 0.00 0.00 0.00 39 1024.1
20150524141509 67 208 2.0 7.0 0.00 0.00 0.00 39 1024.1
20150524140518 66 35 2.0 8.0 0.00 0.00 0.00 39 1024.2
20150524140116 66 55 2.0 9.0 0.00 0.00 0.00 41 1024.2
20150524134517 64 254 2.0 9.0 0.00 0.00 0.00 43 1024.3
20150524134509 64 254 2.0 9.0 0.00 0.00 0.00 43 1024.3
20150524133516 63 257 2.0 7.0 0.00 0.00 0.00 46 1024.3
20150524133108 62 184 1.0 6.0 0.00 0.00 0.00 48 1024.4